Flag for U.S.A. Weather past 2 weeks in Wailuku, Hawaii, U.S.A.

78 °F

Scattered clouds.

Feels Like: 80 °F
Forecast: 73 / 83 °F
Wind: 13 mph from Northeast

Location: Kahului Airport

Current Time: Nov 28, 2015 at 6:06:33 PM

Latest Report: Nov 28, 2015 at 4:54 PM

Visibility: 10 mi

Pressure: 30.01 "Hg

Humidity: 69%

Dew point: 67 °F

Location of WailukuLocation

Historic Weather in Wailuku — Graph


Wailuku temperature yesterday

Maximum temperature yesterday: 83 °F (at 11:54 AM)
Minimum temperature yesterday: 74 °F (at 9:54 PM)
Average temperature yesterday: 78 °F

Past Weeks' High & Low Weather Summary

High88 °F (Nov 16, 12:54 PM)100% (Nov 20, 10:54 PM)30.10 "Hg (Nov 20, 10:54 PM)
Low63 °F (Nov 16, 6:54 AM)36% (Nov 16, 12:54 PM)29.79 "Hg (Nov 22, 1:54 PM)
Average77 °F76%29.95 "Hg
* Reported Nov 13 3:54 PM — Nov 28 3:54 PM, Wailuku, Weather by CustomWeather, © 2015

Note: Actual official high and low records may vary slightly from our data, if they occured in-between our weather recording intervals... More about our weather records


Wailuku weather history for previous 24 hours

Time TempWeatherWind HumidityBarometerVisibility
3:54 PM
Sat, Nov 28
80 °FScattered clouds.17 mph62%30.00 "Hg10 mi
2:54 PM82 °FScattered clouds.16 mph58%30.01 "Hg10 mi
1:54 PM82 °FScattered clouds.17 mph55%30.02 "Hg10 mi
11:54 AM83 °FScattered clouds.21 mph59%30.07 "Hg10 mi
10:54 AM80 °FBroken clouds.18 mph64%30.09 "Hg10 mi
9:54 AM79 °FScattered clouds.10 mph69%30.10 "Hg10 mi
8:54 AM77 °FScattered clouds.13 mph71%30.09 "Hg10 mi
7:54 AM75 °FLight rain. Broken clouds.17 mph79%30.08 "Hg10 mi
6:54 AM74 °FLight rain. Broken clouds.18 mph85%30.07 "Hg10 mi
5:54 AM75 °FMostly cloudy.15 mph85%30.06 "Hg10 mi
4:54 AM76 °FOvercast.15 mph77%30.05 "Hg10 mi
3:54 AM76 °FPartly cloudy.15 mph77%30.05 "Hg10 mi
2:54 AM76 °FPassing clouds.15 mph80%30.04 "Hg10 mi
1:54 AM77 °FOvercast.14 mph74%30.06 "Hg10 mi
12:54 AM76 °FLight rain. Overcast.15 mph80%30.06 "Hg8 mi
11:54 PM
Fri, Nov 27
76 °FPartly cloudy.12 mph80%30.08 "Hg10 mi
10:54 PM75 °FPassing clouds.12 mph79%30.09 "Hg10 mi
9:54 PM74 °FClear.8 mph82%30.09 "Hg10 mi
8:54 PM75 °FPassing clouds.10 mph76%30.09 "Hg10 mi
7:54 PM76 °FClear.14 mph74%30.06 "Hg10 mi
6:54 PM76 °FPassing clouds.14 mph74%30.04 "Hg10 mi
Weather by CustomWeather, © 2015

See weather overviewHow to use our weather pages